Taurus 1
1 44530U 19059C   25160.18028263  .00004921  00000-0  90997-3 0  9997
2 44530  98.6067 299.5538 0009638  46.0247 314.1748 14.65845315303886
Duchifat 3
1 44854U 19089C   25159.65608348  .00033438  00000-0  65463-3 0  9992
2 44854  36.9445   1.0705 0005077 307.6579  52.3717 15.46483688302875
TO-108
1 44881U 19093C   25159.75165235  .00000744  00000-0  92022-4 0  9997
2 44881  97.7925 235.4186 0012660 230.3235 129.6864 14.85600123295954
FloripaSat 1
1 44885U 19093G   25159.74655497  .00003741  00000-0  31773-3 0  9999
2 44885  97.8179 247.3455 0009683 200.9100 159.1728 14.98471602296620
RS-44
1 44909U 19096E   25160.47564871  .00000032  00000-0  90073-4 0  9995
2 44909  82.5218 227.3474 0216352 295.9633  61.9320 12.79740858254675
UPMSat 2
1 46276U 20061E   25159.72941949  .00054735  00000-0  48205-3 0  9997
2 46276  97.2443 234.0823 0001987 161.6440 198.4894 15.68589978265333
SALSAT
1 46495U 20068K   25159.82740741  .00006120  00000-0  26515-3 0  9990
2 46495  97.8595 137.8207 0012002 156.7437 203.4343 15.22732145258410
CubeSX-Sirius-HSE
1 47951U 21022V   25157.62701764  .07883385  25648-5  89537-3 0  9993
2 47951  97.4004  72.1904 0010275 223.9924 136.0557 16.36879307233400
CubeSX-HSE
1 47952U 21022W   25157.69972699  .06655353  25454-5  93288-3 0  9992
2 47952  97.3980  72.5414 0010307 219.3637 140.6911 16.34906352233436
GRBAlpha
1 47959U 21022AD  25159.71814364  .03929797  24841-5  11643-2 0  9994
2 47959  97.3939  74.7716 0009713 212.4750 147.5946 16.27073394232576
TUBIN
1 48900U 21059X   25159.69796186  .00039379  00000-0  47850-3 0  9990
2 48900  97.6741 328.8527 0003378 216.9065 143.1959 15.60478572219900
LEDSAT
1 49069U 21073D   25159.72948033  .00052248  00000-0  62815-3 0  9995
2 49069  97.3896 241.2305 0009712  88.8018 271.4351 15.60646738211307
CUTE
1 49263U 21088D   25159.19383542  .00014626  00000-0  29318-3 0  9995
2 49263  97.4512 235.4077 0006959 236.8082 123.2501 15.46799751204217
TeikyoSat 4
1 49396U 21102B   25159.68830404  .00001409  00000-0  96304-4 0  9992
2 49396  97.4100 198.1492 0013796 131.7769 228.4640 15.07638545196419
Z-Sat
1 49399U 21102E   25159.69366884  .00003191  00000-0  17651-3 0  9999
2 49399  97.3799 201.2442 0019871 106.3032 254.0388 15.14403575196849
KOSEN 1
1 49402U 21102H   25159.55188136  .00005761  00000-0  26735-3 0  9999
2 49402  97.3706 204.5138 0017604  84.4527 275.8716 15.20279230197132
HO-113
1 50466U 21131B   25159.71920663  .00000471  00000-0  16087-3 0  9992
2 50466  98.5102 249.0762 0005209 130.1199 230.0447 14.40814033181321
Foresail-1
1 52766U 22057AL  25159.35145640  .00424156  77045-4  93326-3 0  9997
2 52766  97.6048 311.2986 0008546 251.1025 108.9325 15.98023292169703
SNUGLITE 2
1 52899U 22065F   25159.66951830  .00000943  00000-0  19219-3 0  9999
2 52899  98.1685 301.6516 0008875 113.4608 246.7527 14.63212163156357
UmKA 1 (RS40S)
1 57172U 23091G   25159.68237042  .00004594  00000-0  24670-3 0  9995
2 57172  97.5584 215.0687 0013634 344.1283  15.9520 15.15351232107348
CubeBel-2 (EU11S)
1 57175U 23091K   25160.24140128  .00009819  00000-0  46718-3 0  9992
2 57175  97.5581 216.7687 0011417 351.1883   8.9149 15.19321210107501
VERONIKA
1 58261U 23174F   25159.50195692  .00113810  00000-0  93413-3 0  9995
2 58261  97.4123 245.6111 0001631  88.5468 271.5981 15.70108727 88513
ENSO
1 58470U 23185J   25160.25148799  .00053848  00000-0  77576-3 0  9995
2 58470  97.3744 235.3587 0007600  93.0989 267.1136 15.55827751 84985
EIRSAT-1
1 58472U 23185L   25160.26172678  .00104709  00000-0  95934-3 0  9992
2 58472  97.3697 237.2654 0004948 107.2614 252.9189 15.67429868 85111
SONATE-2
1 59112U 24043Q   25158.80062780  .00014129  00000-0  40791-3 0  9994
2 59112  97.5129 289.9426 0012313 119.7891 240.4578 15.35713616 70060
MO-122
1 60209U 24125G   25159.14121682  .00017414  00000-0  49430-3 0  9998
2 60209  97.2797  10.7762 0020096 139.4833 220.7912 15.36062230 51738
GRBBeta
1 60237U 24128C   25159.33848626  .00004268  00000-0  32524-3 0  9996
2 60237  61.9919  83.8865 0051913  57.2693 303.3386 15.02622149 50018
Curium One
1 60242U 24128H   25159.11133056  .00007152  00000-0  50002-3 0  9998
2 60242  61.9819  82.9927 0051814  53.2246 307.3585 15.05084989 50014
ROBUSTA-3A
1 60243U 24128J   25159.51228196  .00006616  00000-0  47020-3 0  9993
2 60243  61.9891  82.4135 0050593  51.0066 309.5515 15.04621212 50067
CatSat
1 60246U 24125J   25159.51470932  .00008919  00000-0  29742-3 0  9999
2 60246  97.2590  10.3723 0044260  98.0982 262.5284 15.30344209 49823
HYPERVIEW-1G (RS66S)
1 61772U 24199AP  25159.69850998  .00016198  00000-0  47077-3 0  9997
2 61772  97.3542  28.5589 0013498 188.0106 172.0924 15.35453792 76823
AO-123
1 61781U 24199AY  25159.66338981  .00005262  00000-0  19268-3 0  9998
2 61781  97.3555  27.4212 0015316 194.8160 165.2633 15.28350846 76744
ZIMSAT 2
1 61783U 24199BA  25160.27331472  .00032914  00000-0  80488-3 0  9993
2 61783  97.3517  29.7430 0013631 181.9673 178.1522 15.40639790 80102
HADES-R (SO-124)
1 62690U 25009CK  25159.17027720  .00036118  00000-0  12777-2 0  9992
2 62690  97.4097 239.9809 0004305 111.6682 248.5016 15.29061261 21932
HYDRA-T
1 62692U 25009CM  25159.67942123  .00026235  00000-0  92214-3 0  9996
2 62692  97.4098 240.5203 0004063 108.8648 251.3033 15.29340454 22017
JINJUSat 1B
1 63210U 25052A   25159.47680805  .00009837  00000-0  45129-3 0  9997
2 63210  97.4430  53.6140 0003583 354.4589   5.6606 15.20626742 13087
NUSHSAT 1
1 63211U 25052B   25159.20872224  .00011540  00000-0  52542-3 0  9998
2 63211  97.4418  53.3501 0003819   1.5949 358.5298 15.20844011 13048
TEVEL2-4
1 63213U 25052D   25159.22205604  .00010945  00000-0  50282-3 0  9991
2 63213  97.4337  53.2424 0003715  24.2493 335.8917 15.20550312 13048
TEVEL2-5
1 63214U 25052E   25159.22262586  .00011133  00000-0  51166-3 0  9996
2 63214  97.4339  53.2420 0003684  25.1669 334.9745 15.20531830 13040
TEVEL2-6
1 63215U 25052F   25158.96148394  .00009429  00000-0  43453-3 0  9992
2 63215  97.4340  52.9807 0003835  25.4134 334.7289 15.20483990 13006
TEVEL2-1
1 63217U 25052H   25160.42034714  .00009993  00000-0  46275-3 0  9999
2 63217  97.4310  54.3662 0004254  31.3248 328.8240 15.20298404 13227
TEVEL2-2
1 63218U 25052J   25160.42064978  .00009903  00000-0  45861-3 0  9996
2 63218  97.4310  54.3665 0004313  31.6246 328.5247 15.20298361 13224
TEVEL2-3
1 63219U 25052K   25159.69675926  .00009028  00000-0  41868-3 0  9996
2 63219  97.4314  53.6527 0004381  33.2126 326.9383 15.20276475 13111
TEVEL2-8
1 63237U 25052AD  25159.69565677  .00008745  00000-0  41964-3 0  9999
2 63237  97.4377  53.5723 0009034  30.8125 329.3638 15.19074937 13105
TEVEL2-9
1 63238U 25052AE  25159.69796414  .00008706  00000-0  41847-3 0  9992
2 63238  97.4378  53.5709 0009112  30.8680 329.3088 15.19016550 13100
TEVEL2-7
1 63239U 25052AF  25160.42452286  .00009412  00000-0  45238-3 0  9995
2 63239  97.4378  54.2808 0009027  28.9106 331.2627 15.18997706 13218
HYDRA-W
1 63490U 25052BL  25159.69166721  .00019503  00000-0  82484-3 0  9993
2 63490  97.4325  53.8276 0012625  26.5460 333.6420 15.23178566 13126
HADES-ICM
1 63492U 25052BN  25158.65496816  .00022150  00000-0  94876-3 0  9991
2 63492  97.4330  52.7730 0013136  32.2625 327.9413 15.22713888 12962
